Location: Newark
(54.4000°N, 32.4500°E)
Time: 00:56:18
(UTC+00:00)

Envisat - Pass Details

Date: 23 January 2020
Orbit: 764 x 766 km, 98.1° (Epoch: 20 February)

Event Time Altitude Azimuth Distance (km) Brightness Sun altitude
Rises 17:04:57 0° 215° (SW) 3,226 6.7 -24.8°
Reaches altitude 10° 17:08:09 10° 237° (WSW) 2,305 6.2 -25.3°
Maximum altitude 17:11:15 16° 275° (W) 1,922 5.9 -25.7°
Drops below altitude 10° 17:14:21 10° 313° (NW) 2,315 6.1 -26.2°
Sets 17:17:36 0° 334° (NNW) 3,248 6.6 -26.7°
